Regional Weather Roundup
Issued by NWS State College, PA

Home | Current Version | Previous Version | Text Only | Print | Product List | Glossary On
Versions: 1 2 3 4 5 6 7 8 9 10 11 12 13 14 15 16 17 18 19 20 21 22 23 24 25 26 27 28 29 30 31 32 33 34 35 36 37 38 39 40 41 42 43 44 45 46 47 48 49 50
000
ASUS41 KCTP 130810
RWRCTP

REGIONAL WEATHER ROUNDUP
NATIONAL WEATHER SERVICE STATE COLLEGE PA
400 AM EDT SUN JUL 13 2014

Note: "fair" indicates few or no clouds below 12,000 feet with no
significant weather and/or obstructions to visibility.

* = STATION THAT DOES NOT REPORT PRECIPITATION /E.G. RAIN...SNOW...ETC/
    THUNDER OR FOG.

PAZ002>004-007>009-013>016-020>023-029>032-130900-
WESTERN PENNSYLVANIA

CITY           SKY/WX    TMP DP  RH WIND       PRES   REMARKS
ERIE           CLOUDY    76  62  62 S13       29.92F
MEADVILLE      CLOUDY    71  60  68 S7        29.98F
FRANKLIN*      PTCLDY    70  61  73 S9        30.02F
NEW CASTLE       N/A     72  64  75 CALM      30.00F
BEAVER COUNTY  NOT AVBL
BUTLER*        MOCLDY    72  63  73 S5        30.03F
PITTSBURGH INT CLOUDY    74  63  68 S5        30.02F
PITTSBURGH     MOCLDY    72  62  71 S8        30.02F
INDIANA*       CLOUDY    68  61  77 CALM      30.08F
LATROBE        CLEAR     70  64  83 SW5       30.05F
WASHINGTON CO* MOCLDY    66  63  88 CALM      30.04F
$$

PAZ004>006-010>012-017>019-024>028-033>037-041-042-045-046-049>053-130900-
CENTRAL PENNSYLVANIA

CITY           SKY/WX    TMP DP  RH WIND       PRES   REMARKS
BRADFORD       MOCLDY    69  59  70 VRB5      30.04F
DUBOIS         MOCLDY    71  60  68 SW5       30.04F
CLEARFIELD     MOCLDY    62  61  96 CALM      30.06F FOG
JOHNSTOWN      PTCLDY    69  56  62 S7        30.10F
ALTOONA        MOCLDY    69  65  86 S6        30.08S
STATE COLLEGE  MOCLDY    67  64  91 SW3       30.05F
WILLIAMSPORT   MOCLDY    73  66  78 E7        30.02S
SELINSGROVE    MOCLDY    71  67  87 CALM      30.04F
FT INDIANTOWN  NOT AVBL
CAPITAL CITY   CLOUDY    74  67  78 CALM      30.06S
HARRISBURG     CLOUDY    75  67  76 S9        30.05F
YORK           CLOUDY    73  68  84 S6        30.06F
$$

PAZ038>040-043-044-047-048-054-055-060>062-067>071-130900-
EASTERN PENNSYLVANIA

CITY           SKY/WX    TMP DP  RH WIND       PRES   REMARKS
SCRANTON       MOCLDY    73  66  78 SW6       30.07S
MOUNT POCONO   CLOUDY    68  65  90 SW12      30.13S
ALLENTOWN      CLOUDY    73  66  78 S5        30.09S
QUAKERTOWN*    PTSUNNY   70  68  94 S3        30.10F
READING        MOCLDY    74  68  81 S7        30.07S
LANCASTER      CLOUDY    72  69  90 E3        30.07F
COATESVILLE    CLOUDY    68  68 100 SE6       30.11S
POTTSTOWN      MOCLDY    71  66  84 VRB3      30.11S
BLUE BELL      MOCLDY    72  68  88 CALM      30.09F
DOYLESTOWN     MOCLDY    69  67  93 S3        30.09F
WILLOW GROVE   NOT AVBL
NORTH PHILA    MOCLDY    73  67  81 S7        30.10F
PHILADELPHIA   MOCLDY    72  67  84 S7        30.10F
$$


USA.gov is the U.S. government's official web portal to all federal, state and local government web resources and services.